Cincinnati, OH

9:34 PM EST on December 14, 2019 (GMT -0500)
Cincinnati Municipal-Lunken

Weather History for KLUK - September, 2019

Change the Weather History Date:

Saturday, September 21, 2019

  Actual Average Record
Temperature  
Mean Temperature 78 °F -  
Max Temperature 90 °F 76 °F 93 °F (2010)
Min Temperature 66 °F 55 °F 33 °F (1962)
Cooling Degree Days 12    
Growing Degree Days 28 (Base 50)    
Moisture  
Dew Point 65 °F    
Average Humidity 79    
Maximum Humidity 100    
Minimum Humidity 40    
Precipitation  
Precipitation 0.00 in - - ()
Sea Level Pressure  
Sea Level Pressure 30.19 in    
Wind  
Wind Speed 2 mph ()    
Max Wind Speed 12 mph    
Max Gust Speed 20 mph    
Visibility 7.5 miles    
Events Fog    
Averages and records for this station are not official NWS values.
T = Trace of Precipitation, MM = Missing Value Source: Averaged Metar Reports

Daily Weather History Graph

Daily Weather History Graph

Search for Another Location

Airport or City:

Astronomy

Sep. 21, 2019 Rise Set
Actual Time 7:24 AM EDT 7:36 PM EDT
Civil Twilight 6:57 AM EDT 8:03 PM EDT
Nautical Twilight 6:26 AM EDT 8:34 PM EDT
Astronomical Twilight 5:54 AM EDT 9:06 PM EDT
Moon No Moon Rise 2:26 PM EDT (9/21)
Length of Visible Light 13h 05m
Length of Day
12h 12m
Waning Gibbous, 55% of the Moon is Illuminated
Sep 21
Waning Gibbous
Sep 21
Last Quarter
Sep 28
New
Oct 5
First Quarter
Oct 13
Full

Hourly Weather History & Observations

Time (EDT) Temp. Heat Index Dew Point Humidity Pressure Visibility Wind Dir Wind Speed Gust Speed Precip Events Conditions
12:53 AM 70.0 °F - 68.0 °F 93% 30.18 in 9.0 mi Calm Calm - N/A   Partly Cloudy
1:53 AM 68.0 °F - 66.9 °F 96% 30.19 in 7.0 mi Calm Calm - N/A   Clear
2:53 AM 66.9 °F - 66.9 °F 100% 30.19 in 4.0 mi Calm Calm - N/A   Clear
3:53 AM 66.9 °F - 66.0 °F 97% 30.19 in 6.0 mi Calm Calm - N/A   Clear
4:47 AM 66.2 °F - 66.2 °F 100% 30.21 in 1.5 mi Calm Calm - N/A   Clear
4:53 AM 66.0 °F - 66.0 °F 100% 30.20 in 0.5 mi Calm Calm - N/A Fog Fog
5:02 AM 66.0 °F - 66.0 °F 100% 30.21 in 2.5 mi Calm Calm - N/A   Scattered Clouds
5:09 AM 66.9 °F - 66.0 °F 97% 30.21 in 5.0 mi Calm Calm - N/A   Partly Cloudy
5:24 AM 66.9 °F - 66.9 °F 100% 30.21 in 1.8 mi Calm Calm - N/A   Partly Cloudy
5:35 AM 66.0 °F - 66.0 °F 100% 30.21 in 3.0 mi Calm Calm - N/A   Clear
5:53 AM 66.9 °F - 66.9 °F 100% 30.21 in 4.0 mi Calm Calm - N/A   Scattered Clouds
6:53 AM 66.9 °F - 66.0 °F 97% 30.22 in 7.0 mi Calm Calm - N/A   Scattered Clouds
7:53 AM 68.0 °F - 66.9 °F 96% 30.23 in 8.0 mi Calm Calm - N/A   Scattered Clouds
8:53 AM 71.1 °F - 68.0 °F 90% 30.24 in 8.0 mi NNE 4.6 mph - N/A   Mostly Cloudy
9:53 AM 77.0 °F - 66.9 °F 71% 30.25 in 10.0 mi North - - N/A   Partly Cloudy
10:53 AM 79.0 °F - 66.9 °F 66% 30.25 in 10.0 mi South 4.6 mph - N/A   Mostly Cloudy
11:53 AM 84.0 °F 85.8 °F 64.9 °F 53% 30.24 in 10.0 mi West 11.5 mph - N/A   Partly Cloudy
12:53 PM 86.0 °F 87.3 °F 64.0 °F 48% 30.22 in 10.0 mi Variable 5.8 mph - N/A   Partly Cloudy
1:53 PM 89.1 °F 90.3 °F 64.0 °F 43% 30.19 in 10.0 mi South 11.5 mph 19.6 mph N/A   Scattered Clouds
2:53 PM 88.0 °F 88.7 °F 63.0 °F 43% 30.18 in 10.0 mi SW 9.2 mph - N/A   Partly Cloudy
3:53 PM 89.1 °F 89.3 °F 62.1 °F 40% 30.16 in 10.0 mi SSW 11.5 mph - N/A   Partly Cloudy
4:53 PM 86.0 °F 86.1 °F 61.0 °F 43% 30.14 in 10.0 mi SW 10.4 mph - N/A   Partly Cloudy
5:53 PM 86.0 °F 86.3 °F 62.1 °F 44% 30.14 in 10.0 mi SSW 10.4 mph - N/A   Clear
6:53 PM 82.0 °F 83.1 °F 63.0 °F 52% 30.13 in 10.0 mi SSW 4.6 mph - N/A   Clear
7:53 PM 75.0 °F - 66.0 °F 73% 30.14 in 10.0 mi Calm Calm - N/A   Clear
8:53 PM 72.0 °F - 64.9 °F 78% 30.15 in 10.0 mi Calm Calm - N/A   Clear
9:53 PM 70.0 °F - 64.9 °F 84% 30.16 in 10.0 mi Calm Calm - N/A   Clear
10:53 PM 68.0 °F - 64.9 °F 90% 30.15 in 10.0 mi Calm Calm - N/A   Clear
11:53 PM 66.9 °F - 64.9 °F 93% 30.14 in 9.0 mi Calm Calm - N/A   Clear